contact:dominique.lefevre@mio.osupytheas.fr, maurice.libes@osupytheas.fr, didier.mallarino@osupytheas.fr
Project:EMSO http://www.emso-fr.org/EMSO-France
Depth: 2436.0 m
Title:EMSO Ligure Ouest : Data MII capteur OXYGEN
DateTime,Latitude,Longitude,Optode-Type,Optode_Serial,Oxygen,Saturation_Oxygen,Temperature
DateTime,Latitude,Longitude,Optode-Type,Optode_Serial,µmol.l-1,%,degC
2019-07-28T00:02:34,42.805,6.029,4330,1995,193.101,59.055,13.289
2019-07-28T00:05:34,42.805,6.029,4330,1995,193.084,59.050,13.289
2019-07-28T00:08:34,42.805,6.029,4330,1995,193.074,59.047,13.289
2019-07-28T00:11:34,42.805,6.029,4330,1995,193.078,59.047,13.289
2019-07-28T00:14:34,42.805,6.029,4330,1995,193.082,59.050,13.290
2019-07-28T00:17:34,42.805,6.029,4330,1995,193.075,59.047,13.290
2019-07-28T00:20:34,42.805,6.029,4330,1995,193.084,59.050,13.290
2019-07-28T00:23:34,42.805,6.029,4330,1995,193.107,59.057,13.290
2019-07-28T00:26:34,42.805,6.029,4330,1995,193.166,59.074,13.289
2019-07-28T00:29:34,42.805,6.029,4330,1995,193.207,59.087,13.289
2019-07-28T00:32:34,42.805,6.029,4330,1995,193.119,59.062,13.291
2019-07-28T00:35:34,42.805,6.029,4330,1995,193.102,59.057,13.291
2019-07-28T00:38:34,42.805,6.029,4330,1995,193.055,59.042,13.291
2019-07-28T00:41:34,42.805,6.029,4330,1995,193.062,59.045,13.291
2019-07-28T00:44:34,42.805,6.029,4330,1995,192.987,59.023,13.292
2019-07-28T00:47:34,42.805,6.029,4330,1995,192.918,59.002,13.292
2019-07-28T00:50:34,42.805,6.029,4330,1995,192.818,58.973,13.293
2019-07-28T00:53:34,42.805,6.029,4330,1995,192.783,58.960,13.291
2019-07-28T00:56:34,42.805,6.029,4330,1995,192.712,58.941,13.293
2019-07-28T00:59:34,42.805,6.029,4330,1995,192.704,58.936,13.291
2019-07-28T01:02:34,42.805,6.029,4330,1995,192.665,58.923,13.290
2019-07-28T01:05:34,42.805,6.029,4330,1995,192.727,58.945,13.293
2019-07-28T01:08:34,42.805,6.029,4330,1995,192.732,58.945,13.292
2019-07-28T01:11:34,42.805,6.029,4330,1995,192.711,58.940,13.293
2019-07-28T01:14:34,42.805,6.029,4330,1995,192.802,58.966,13.291
2019-07-28T01:17:34,42.805,6.029,4330,1995,192.789,58.962,13.291
2019-07-28T01:20:34,42.805,6.029,4330,1995,192.811,58.967,13.290
2019-07-28T01:23:34,42.805,6.029,4330,1995,192.828,58.972,13.290
2019-07-28T01:26:34,42.805,6.029,4330,1995,192.851,58.980,13.291
2019-07-28T01:29:34,42.805,6.029,4330,1995,192.785,58.959,13.290
2019-07-28T01:32:34,42.805,6.029,4330,1995,192.773,58.957,13.291
2019-07-28T01:35:34,42.805,6.029,4330,1995,192.766,58.954,13.291
2019-07-28T01:38:34,42.805,6.029,4330,1995,192.761,58.951,13.290
2019-07-28T01:41:34,42.805,6.029,4330,1995,192.611,58.906,13.290
2019-07-28T01:44:34,42.805,6.029,4330,1995,192.630,58.912,13.290
2019-07-28T01:47:34,42.805,6.029,4330,1995,192.645,58.917,13.291
2019-07-28T01:50:34,42.805,6.029,4330,1995,192.607,58.904,13.290
2019-07-28T01:56:34,42.805,6.029,4330,1995,192.664,58.921,13.289
2019-07-28T01:59:34,42.805,6.029,4330,1995,192.647,58.918,13.291
2019-07-28T02:02:34,42.805,6.029,4330,1995,192.562,58.893,13.292
2019-07-28T02:05:34,42.805,6.029,4330,1995,192.598,58.905,13.293
2019-07-28T02:08:34,42.805,6.029,4330,1995,192.540,58.886,13.292
2019-07-28T02:11:34,42.805,6.029,4330,1995,192.613,58.908,13.292
2019-07-28T02:14:34,42.805,6.029,4330,1995,192.647,58.918,13.291
2019-07-28T02:17:34,42.805,6.029,4330,1995,192.695,58.934,13.292
2019-07-28T02:20:34,42.805,6.029,4330,1995,192.639,58.916,13.291
2019-07-28T02:23:34,42.805,6.029,4330,1995,192.621,58.911,13.292
2019-07-28T02:26:34,42.805,6.029,4330,1995,192.613,58.907,13.291
2019-07-28T02:29:34,42.805,6.029,4330,1995,192.626,58.912,13.291
2019-07-28T02:32:34,42.805,6.029,4330,1995,192.543,58.888,13.292
2019-07-28T02:35:34,42.805,6.029,4330,1995,192.654,58.921,13.292
2019-07-28T02:38:34,42.805,6.029,4330,1995,192.571,58.894,13.291
2019-07-28T02:41:34,42.805,6.029,4330,1995,192.626,58.912,13.291
2019-07-28T02:44:34,42.805,6.029,4330,1995,192.563,58.892,13.291
2019-07-28T02:47:34,42.805,6.029,4330,1995,192.581,58.897,13.291
2019-07-28T02:50:34,42.805,6.029,4330,1995,192.550,58.887,13.290
2019-07-28T02:53:34,42.805,6.029,4330,1995,192.422,58.849,13.291
2019-07-28T02:56:34,42.805,6.029,4330,1995,192.482,58.869,13.292
2019-07-28T02:59:34,42.805,6.029,4330,1995,192.476,58.866,13.291
2019-07-28T03:02:34,42.805,6.029,4330,1995,192.482,58.868,13.291
2019-07-28T03:05:34,42.805,6.029,4330,1995,192.485,58.869,13.292
2019-07-28T03:08:34,42.805,6.029,4330,1995,192.447,58.857,13.291
2019-07-28T03:11:34,42.805,6.029,4330,1995,192.467,58.863,13.291
2019-07-28T03:14:34,42.805,6.029,4330,1995,192.457,58.860,13.291
2019-07-28T03:17:34,42.805,6.029,4330,1995,192.481,58.868,13.292
2019-07-28T03:20:34,42.805,6.029,4330,1995,192.455,58.860,13.292
2019-07-28T03:23:34,42.805,6.029,4330,1995,192.504,58.876,13.292
2019-07-28T03:26:34,42.805,6.029,4330,1995,192.405,58.844,13.291
2019-07-28T03:29:34,42.805,6.029,4330,1995,192.493,58.873,13.293
2019-07-28T03:32:34,42.805,6.029,4330,1995,192.411,58.847,13.292
2019-07-28T03:35:34,42.805,6.029,4330,1995,192.521,58.880,13.291
2019-07-28T03:38:34,42.805,6.029,4330,1995,192.534,58.885,13.292
2019-07-28T03:41:34,42.805,6.029,4330,1995,192.479,58.869,13.293
2019-07-28T03:44:34,42.805,6.029,4330,1995,192.547,58.888,13.292
2019-07-28T03:47:34,42.805,6.029,4330,1995,192.540,58.886,13.291
2019-07-28T03:50:34,42.805,6.029,4330,1995,192.444,58.858,13.293
2019-07-28T03:53:34,42.805,6.029,4330,1995,192.528,58.883,13.292
2019-07-28T03:56:34,42.805,6.029,4330,1995,192.540,58.885,13.291
2019-07-28T03:59:34,42.805,6.029,4330,1995,192.552,58.891,13.292
2019-07-28T04:02:34,42.805,6.029,4330,1995,192.528,58.884,13.293
2019-07-28T04:05:34,42.805,6.029,4330,1995,192.505,58.875,13.291
2019-07-28T04:08:34,42.805,6.029,4330,1995,192.446,58.859,13.292
2019-07-28T04:11:34,42.805,6.029,4330,1995,192.453,58.860,13.292
2019-07-28T04:14:34,42.805,6.029,4330,1995,192.447,58.861,13.294
2019-07-28T04:17:34,42.805,6.029,4330,1995,192.470,58.866,13.292
2019-07-28T04:20:34,42.805,6.029,4330,1995,192.448,58.859,13.292
2019-07-28T04:23:34,42.805,6.029,4330,1995,192.478,58.867,13.292
2019-07-28T04:32:34,42.805,6.029,4330,1995,192.637,58.911,13.288
2019-07-28T04:35:34,42.805,6.029,4330,1995,192.549,58.888,13.291
2019-07-28T04:38:34,42.805,6.029,4330,1995,192.564,58.891,13.290
2019-07-28T04:41:34,42.805,6.029,4330,1995,192.560,58.891,13.290
2019-07-28T04:44:34,42.805,6.029,4330,1995,192.598,58.902,13.290
2019-07-28T04:47:34,42.805,6.029,4330,1995,192.512,58.876,13.291
2019-07-28T04:50:34,42.805,6.029,4330,1995,192.563,58.892,13.291
2019-07-28T04:53:34,42.805,6.029,4330,1995,192.531,58.882,13.291
2019-07-28T04:56:34,42.805,6.029,4330,1995,192.528,58.881,13.290
2019-07-28T04:59:34,42.805,6.029,4330,1995,192.541,58.885,13.291
2019-07-28T05:02:34,42.805,6.029,4330,1995,192.575,58.897,13.292
2019-07-28T05:05:34,42.805,6.029,4330,1995,192.571,58.896,13.292
2019-07-28T05:08:34,42.805,6.029,4330,1995,192.534,58.883,13.291
2019-07-28T05:11:34,42.805,6.029,4330,1995,192.519,58.881,13.293
2019-07-28T05:14:34,42.805,6.029,4330,1995,192.501,58.873,13.291
2019-07-28T05:17:34,42.805,6.029,4330,1995,192.516,58.877,13.291
2019-07-28T05:20:34,42.805,6.029,4330,1995,192.487,58.870,13.292
2019-07-28T05:23:34,42.805,6.029,4330,1995,192.522,58.879,13.290
2019-07-28T05:26:34,42.805,6.029,4330,1995,192.549,58.889,13.291
2019-07-28T05:29:34,42.805,6.029,4330,1995,192.525,58.881,13.291
2019-07-28T05:32:34,42.805,6.029,4330,1995,192.593,58.901,13.290
2019-07-28T05:35:34,42.805,6.029,4330,1995,192.612,58.907,13.291
2019-07-28T05:38:34,42.805,6.029,4330,1995,192.543,58.884,13.290
2019-07-28T05:41:34,42.805,6.029,4330,1995,192.596,58.901,13.290
2019-07-28T05:44:34,42.805,6.029,4330,1995,192.507,58.874,13.290
2019-07-28T05:47:34,42.805,6.029,4330,1995,192.525,58.879,13.290
2019-07-28T05:50:34,42.805,6.029,4330,1995,192.567,58.892,13.290
2019-07-28T05:53:34,42.805,6.029,4330,1995,192.636,58.912,13.289
2019-07-28T05:56:34,42.805,6.029,4330,1995,192.618,58.908,13.290
2019-07-28T05:59:34,42.805,6.029,4330,1995,192.583,58.896,13.289
2019-07-28T06:02:34,42.805,6.029,4330,1995,192.587,58.897,13.289
2019-07-28T06:05:34,42.805,6.029,4330,1995,192.612,58.905,13.289
2019-07-28T06:08:34,42.805,6.029,4330,1995,192.559,58.889,13.289
2019-07-28T06:11:34,42.805,6.029,4330,1995,192.621,58.908,13.289
2019-07-28T06:14:34,42.805,6.029,4330,1995,192.672,58.923,13.289
2019-07-28T06:17:34,42.805,6.029,4330,1995,192.665,58.920,13.289
2019-07-28T06:20:34,42.805,6.029,4330,1995,192.660,58.920,13.289
2019-07-28T06:23:34,42.805,6.029,4330,1995,192.656,58.919,13.290
2019-07-28T06:26:34,42.805,6.029,4330,1995,192.613,58.905,13.289
2019-07-28T06:29:34,42.805,6.029,4330,1995,192.668,58.923,13.290
2019-07-28T06:32:34,42.805,6.029,4330,1995,192.616,58.907,13.290
2019-07-28T06:35:34,42.805,6.029,4330,1995,192.648,58.917,13.290
2019-07-28T06:38:34,42.805,6.029,4330,1995,192.626,58.909,13.289
2019-07-28T06:41:34,42.805,6.029,4330,1995,192.515,58.876,13.290
2019-07-28T06:44:34,42.805,6.029,4330,1995,192.507,58.874,13.290
2019-07-28T06:47:34,42.805,6.029,4330,1995,192.488,58.868,13.290
2019-07-28T06:50:34,42.805,6.029,4330,1995,192.511,58.875,13.290
2019-07-28T06:53:34,42.805,6.029,4330,1995,192.500,58.873,13.291
2019-07-28T06:56:34,42.805,6.029,4330,1995,192.515,58.876,13.289
2019-07-28T06:59:34,42.805,6.029,4330,1995,192.519,58.877,13.290
2019-07-28T07:05:34,42.805,6.029,4330,1995,192.445,58.854,13.289
2019-07-28T07:08:34,42.805,6.029,4330,1995,192.444,58.852,13.288
2019-07-28T07:11:34,42.805,6.029,4330,1995,192.505,58.871,13.288
2019-07-28T07:14:34,42.805,6.029,4330,1995,192.396,58.840,13.290
2019-07-28T07:17:34,42.805,6.029,4330,1995,192.395,58.838,13.288
2019-07-28T07:20:34,42.805,6.029,4330,1995,192.435,58.850,13.289
2019-07-28T07:23:34,42.805,6.029,4330,1995,192.409,58.843,13.289
2019-07-28T07:26:34,42.805,6.029,4330,1995,192.422,58.847,13.289
2019-07-28T07:29:34,42.805,6.029,4330,1995,192.378,58.833,13.289
2019-07-28T07:32:34,42.805,6.029,4330,1995,192.357,58.827,13.289
2019-07-28T07:35:34,42.805,6.029,4330,1995,192.406,58.842,13.290
2019-07-28T07:38:34,42.805,6.029,4330,1995,192.374,58.832,13.289
2019-07-28T07:41:34,42.805,6.029,4330,1995,192.381,58.834,13.289
2019-07-28T07:44:34,42.805,6.029,4330,1995,192.364,58.829,13.289
2019-07-28T07:47:34,42.805,6.029,4330,1995,192.382,58.835,13.289
2019-07-28T07:50:34,42.805,6.029,4330,1995,192.331,58.820,13.290
2019-07-28T07:53:34,42.805,6.029,4330,1995,192.350,58.826,13.291
2019-07-28T07:56:34,42.805,6.029,4330,1995,192.356,58.827,13.289
2019-07-28T07:59:34,42.805,6.029,4330,1995,192.301,58.812,13.291
2019-07-28T08:02:34,42.805,6.029,4330,1995,192.323,58.817,13.290
2019-07-28T08:05:34,42.805,6.029,4330,1995,192.344,58.824,13.290
2019-07-28T08:08:34,42.805,6.029,4330,1995,192.383,58.835,13.289
2019-07-28T08:11:34,42.805,6.029,4330,1995,192.391,58.838,13.290
2019-07-28T08:14:34,42.805,6.029,4330,1995,192.346,58.825,13.290
2019-07-28T08:17:34,42.805,6.029,4330,1995,192.318,58.815,13.289
2019-07-28T08:20:34,42.805,6.029,4330,1995,192.400,58.842,13.291
2019-07-28T08:23:34,42.805,6.029,4330,1995,192.351,58.827,13.291
2019-07-28T08:26:34,42.805,6.029,4330,1995,192.434,58.852,13.290
2019-07-28T08:29:34,42.805,6.029,4330,1995,192.420,58.847,13.290
2019-07-28T08:32:34,42.805,6.029,4330,1995,192.370,58.833,13.291
2019-07-28T08:35:34,42.805,6.029,4330,1995,192.407,58.843,13.290
2019-07-28T08:38:34,42.805,6.029,4330,1995,192.324,58.818,13.290
2019-07-28T08:41:34,42.805,6.029,4330,1995,192.284,58.806,13.290
2019-07-28T08:44:34,42.805,6.029,4330,1995,192.299,58.811,13.291
2019-07-28T08:47:34,42.805,6.029,4330,1995,192.404,58.843,13.290
2019-07-28T08:50:34,42.805,6.029,4330,1995,192.370,58.832,13.290
2019-07-28T08:53:34,42.805,6.029,4330,1995,192.371,58.834,13.291
2019-07-28T08:56:34,42.805,6.029,4330,1995,192.403,58.842,13.290
2019-07-28T08:59:34,42.805,6.029,4330,1995,192.352,58.826,13.290
2019-07-28T09:02:34,42.805,6.029,4330,1995,192.313,58.814,13.290
2019-07-28T09:05:34,42.805,6.029,4330,1995,192.349,58.825,13.290
2019-07-28T09:08:34,42.805,6.029,4330,1995,192.288,58.806,13.289
2019-07-28T09:11:34,42.805,6.029,4330,1995,192.340,58.822,13.290
2019-07-28T09:14:34,42.805,6.029,4330,1995,192.286,58.806,13.290
2019-07-28T09:17:34,42.805,6.029,4330,1995,192.395,58.839,13.289
2019-07-28T09:20:34,42.805,6.029,4330,1995,192.318,58.815,13.289
2019-07-28T09:23:34,42.805,6.029,4330,1995,192.327,58.818,13.289
2019-07-28T09:26:34,42.805,6.029,4330,1995,192.307,58.811,13.289
2019-07-28T09:29:34,42.805,6.029,4330,1995,192.342,58.822,13.289
2019-07-28T09:32:34,42.805,6.029,4330,1995,192.307,58.811,13.289
2019-07-28T09:35:34,42.805,6.029,4330,1995,192.229,58.787,13.289
2019-07-28T09:41:34,42.805,6.029,4330,1995,192.328,58.818,13.289
2019-07-28T09:44:34,42.805,6.029,4330,1995,192.325,58.818,13.290
2019-07-28T09:47:34,42.805,6.029,4330,1995,192.303,58.812,13.290
2019-07-28T09:50:34,42.805,6.029,4330,1995,192.270,58.802,13.290
2019-07-28T09:53:34,42.805,6.029,4330,1995,192.290,58.808,13.290
2019-07-28T09:56:34,42.805,6.029,4330,1995,192.317,58.815,13.289
2019-07-28T09:59:34,42.805,6.029,4330,1995,192.356,58.829,13.291
2019-07-28T10:02:34,42.805,6.029,4330,1995,192.334,58.821,13.290
2019-07-28T10:05:34,42.805,6.029,4330,1995,192.296,58.808,13.289
2019-07-28T10:08:34,42.805,6.029,4330,1995,192.411,58.844,13.289
2019-07-28T10:11:34,42.805,6.029,4330,1995,192.374,58.832,13.289
2019-07-28T10:14:34,42.805,6.029,4330,1995,192.422,58.848,13.290
2019-07-28T10:17:34,42.805,6.029,4330,1995,192.408,58.843,13.289
2019-07-28T10:20:34,42.805,6.029,4330,1995,192.484,58.866,13.289
2019-07-28T10:23:34,42.805,6.029,4330,1995,192.478,58.864,13.289
2019-07-28T10:26:34,42.805,6.029,4330,1995,192.448,58.855,13.290
2019-07-28T10:29:34,42.805,6.029,4330,1995,192.539,58.882,13.289
2019-07-28T10:32:34,42.805,6.029,4330,1995,192.608,58.904,13.290
2019-07-28T10:35:34,42.805,6.029,4330,1995,192.665,58.921,13.289
2019-07-28T10:38:34,42.805,6.029,4330,1995,192.657,58.918,13.289
2019-07-28T10:41:34,42.805,6.029,4330,1995,192.715,58.936,13.289
2019-07-28T10:44:34,42.805,6.029,4330,1995,192.728,58.940,13.289
2019-07-28T10:47:34,42.805,6.029,4330,1995,192.725,58.940,13.289
2019-07-28T10:50:34,42.805,6.029,4330,1995,192.695,58.930,13.289
2019-07-28T10:53:34,42.805,6.029,4330,1995,192.773,58.955,13.290
2019-07-28T10:56:34,42.805,6.029,4330,1995,192.834,58.974,13.290
2019-07-28T10:59:34,42.805,6.029,4330,1995,192.885,58.988,13.289
2019-07-28T11:02:34,42.805,6.029,4330,1995,192.786,58.958,13.289
2019-07-28T11:05:34,42.805,6.029,4330,1995,192.852,58.978,13.289
2019-07-28T11:08:34,42.805,6.029,4330,1995,192.902,58.995,13.290
2019-07-28T11:11:34,42.805,6.029,4330,1995,192.920,58.999,13.289
2019-07-28T11:14:34,42.805,6.029,4330,1995,192.915,58.998,13.290
2019-07-28T11:17:34,42.805,6.029,4330,1995,192.994,59.022,13.290
2019-07-28T11:20:34,42.805,6.029,4330,1995,192.958,59.010,13.289
2019-07-28T11:23:34,42.805,6.029,4330,1995,192.948,59.008,13.290
2019-07-28T11:26:34,42.805,6.029,4330,1995,193.037,59.036,13.290
2019-07-28T11:29:34,42.805,6.029,4330,1995,193.117,59.060,13.289
2019-07-28T11:32:34,42.805,6.029,4330,1995,193.158,59.072,13.290
2019-07-28T11:35:34,42.805,6.029,4330,1995,193.195,59.084,13.290
2019-07-28T11:38:34,42.805,6.029,4330,1995,193.080,59.050,13.291
2019-07-28T11:41:34,42.805,6.029,4330,1995,193.105,59.057,13.290
2019-07-28T11:44:34,42.805,6.029,4330,1995,193.145,59.070,13.290
2019-07-28T11:47:34,42.805,6.029,4330,1995,193.141,59.069,13.291
2019-07-28T11:50:34,42.805,6.029,4330,1995,193.110,59.059,13.291
2019-07-28T11:53:34,42.805,6.029,4330,1995,193.044,59.039,13.291
2019-07-28T11:56:34,42.805,6.029,4330,1995,193.095,59.054,13.290
2019-07-28T11:59:34,42.805,6.029,4330,1995,193.156,59.072,13.290
2019-07-28T12:02:34,42.805,6.029,4330,1995,193.080,59.051,13.291
2019-07-28T12:05:34,42.805,6.029,4330,1995,193.112,59.060,13.291
2019-07-28T12:08:34,42.805,6.029,4330,1995,193.125,59.064,13.290
2019-07-28T12:17:34,42.805,6.029,4330,1995,193.150,59.068,13.288
2019-07-28T12:20:34,42.805,6.029,4330,1995,193.197,59.084,13.289
2019-07-28T12:23:34,42.805,6.029,4330,1995,193.214,59.090,13.290
2019-07-28T12:26:34,42.805,6.029,4330,1995,193.209,59.088,13.290
2019-07-28T12:29:34,42.805,6.029,4330,1995,193.195,59.084,13.290
2019-07-28T12:32:34,42.805,6.029,4330,1995,193.203,59.087,13.290
2019-07-28T12:35:34,42.805,6.029,4330,1995,193.259,59.105,13.291
2019-07-28T12:38:34,42.805,6.029,4330,1995,193.218,59.092,13.290
2019-07-28T12:41:34,42.805,6.029,4330,1995,193.224,59.093,13.290
2019-07-28T12:44:34,42.805,6.029,4330,1995,193.210,59.089,13.290
2019-07-28T12:47:34,42.805,6.029,4330,1995,193.240,59.099,13.291
2019-07-28T12:50:34,42.805,6.029,4330,1995,193.176,59.079,13.291
2019-07-28T12:53:34,42.805,6.029,4330,1995,193.166,59.077,13.291
2019-07-28T12:56:34,42.805,6.029,4330,1995,193.140,59.070,13.292
2019-07-28T12:59:34,42.805,6.029,4330,1995,193.136,59.067,13.291
2019-07-28T13:02:34,42.805,6.029,4330,1995,193.146,59.070,13.291
2019-07-28T13:05:34,42.805,6.029,4330,1995,193.211,59.090,13.290
2019-07-28T13:08:34,42.805,6.029,4330,1995,193.222,59.093,13.291
2019-07-28T13:11:33,42.805,6.029,4330,1995,193.247,59.100,13.290
2019-07-28T13:14:33,42.805,6.029,4330,1995,193.279,59.110,13.290
2019-07-28T13:17:33,42.805,6.029,4330,1995,193.222,59.093,13.291
2019-07-28T13:20:33,42.805,6.029,4330,1995,193.240,59.099,13.290
2019-07-28T13:23:33,42.805,6.029,4330,1995,193.225,59.093,13.290
2019-07-28T13:26:33,42.805,6.029,4330,1995,193.202,59.086,13.290
2019-07-28T13:29:33,42.805,6.029,4330,1995,193.199,59.085,13.290
2019-07-28T13:32:33,42.805,6.029,4330,1995,193.163,59.076,13.291
2019-07-28T13:35:33,42.805,6.029,4330,1995,193.241,59.097,13.289
2019-07-28T13:38:33,42.805,6.029,4330,1995,193.310,59.119,13.289
2019-07-28T13:41:33,42.805,6.029,4330,1995,193.297,59.114,13.289
2019-07-28T13:44:33,42.805,6.029,4330,1995,193.279,59.109,13.290
2019-07-28T13:47:33,42.805,6.029,4330,1995,193.213,59.089,13.289
2019-07-28T13:50:33,42.805,6.029,4330,1995,193.183,59.079,13.289
2019-07-28T13:53:33,42.805,6.029,4330,1995,193.256,59.101,13.289
2019-07-28T13:56:33,42.805,6.029,4330,1995,193.249,59.099,13.289
2019-07-28T13:59:33,42.805,6.029,4330,1995,193.242,59.096,13.288
2019-07-28T14:02:33,42.805,6.029,4330,1995,193.271,59.106,13.289
2019-07-28T14:05:33,42.805,6.029,4330,1995,193.262,59.103,13.289
2019-07-28T14:08:33,42.805,6.029,4330,1995,193.256,59.102,13.289
2019-07-28T14:11:33,42.805,6.029,4330,1995,193.155,59.071,13.289
2019-07-28T14:14:33,42.805,6.029,4330,1995,193.198,59.084,13.289
2019-07-28T14:17:33,42.805,6.029,4330,1995,193.148,59.069,13.289
2019-07-28T14:20:33,42.805,6.029,4330,1995,193.087,59.051,13.290
2019-07-28T14:23:33,42.805,6.029,4330,1995,193.043,59.038,13.290
2019-07-28T14:26:33,42.805,6.029,4330,1995,193.039,59.035,13.289
2019-07-28T14:29:33,42.805,6.029,4330,1995,193.041,59.037,13.290
2019-07-28T14:32:33,42.805,6.029,4330,1995,193.039,59.036,13.289
2019-07-28T14:35:33,42.805,6.029,4330,1995,193.050,59.040,13.290
2019-07-28T14:38:33,42.805,6.029,4330,1995,193.087,59.050,13.289
2019-07-28T14:41:33,42.805,6.029,4330,1995,193.024,59.033,13.290
2019-07-28T14:44:33,42.805,6.029,4330,1995,193.017,59.029,13.289
2019-07-28T14:50:33,42.805,6.029,4330,1995,192.889,58.989,13.288
2019-07-28T14:53:33,42.805,6.029,4330,1995,192.929,59.000,13.288
2019-07-28T14:56:33,42.805,6.029,4330,1995,192.884,58.989,13.289
2019-07-28T14:59:33,42.805,6.029,4330,1995,192.803,58.964,13.289
2019-07-28T15:02:33,42.805,6.029,4330,1995,192.811,58.965,13.289
2019-07-28T15:05:33,42.805,6.029,4330,1995,192.745,58.947,13.290
2019-07-28T15:08:33,42.805,6.029,4330,1995,192.763,58.952,13.290
2019-07-28T15:11:33,42.805,6.029,4330,1995,192.689,58.930,13.290
2019-07-28T15:14:33,42.805,6.029,4330,1995,192.732,58.944,13.291
2019-07-28T15:17:33,42.805,6.029,4330,1995,192.700,58.933,13.290
2019-07-28T15:20:33,42.805,6.029,4330,1995,192.778,58.958,13.291
2019-07-28T15:23:33,42.805,6.029,4330,1995,192.698,58.933,13.290
2019-07-28T15:26:33,42.805,6.029,4330,1995,192.556,58.890,13.290
2019-07-28T15:29:33,42.805,6.029,4330,1995,192.704,58.934,13.290
2019-07-28T15:32:33,42.805,6.029,4330,1995,192.694,58.933,13.291
2019-07-28T15:35:33,42.805,6.029,4330,1995,192.550,58.889,13.291
2019-07-28T15:38:33,42.805,6.029,4330,1995,192.395,58.841,13.291
2019-07-28T15:41:33,42.805,6.029,4330,1995,192.465,58.863,13.291
2019-07-28T15:44:33,42.805,6.029,4330,1995,192.318,58.817,13.291
2019-07-28T15:47:33,42.805,6.029,4330,1995,192.326,58.822,13.293
2019-07-28T15:50:33,42.805,6.029,4330,1995,192.302,58.816,13.293
2019-07-28T15:53:33,42.805,6.029,4330,1995,192.210,58.785,13.291
2019-07-28T15:56:33,42.805,6.029,4330,1995,192.263,58.801,13.291
2019-07-28T15:59:33,42.805,6.029,4330,1995,192.316,58.818,13.292
2019-07-28T16:02:33,42.805,6.029,4330,1995,192.316,58.819,13.292
2019-07-28T16:05:33,42.805,6.029,4330,1995,192.373,58.836,13.292
2019-07-28T16:08:33,42.805,6.029,4330,1995,192.363,58.836,13.295
2019-07-28T16:11:33,42.805,6.029,4330,1995,192.275,58.810,13.295
2019-07-28T16:14:33,42.805,6.029,4330,1995,192.306,58.816,13.293
2019-07-28T16:17:33,42.805,6.029,4330,1995,192.299,58.815,13.293
2019-07-28T16:20:33,42.805,6.029,4330,1995,192.289,58.814,13.295
2019-07-28T16:23:33,42.805,6.029,4330,1995,192.272,58.808,13.294
2019-07-28T16:26:33,42.805,6.029,4330,1995,192.240,58.796,13.293
2019-07-28T16:29:33,42.805,6.029,4330,1995,192.188,58.781,13.294
2019-07-28T16:32:33,42.805,6.029,4330,1995,192.116,58.759,13.293
2019-07-28T16:35:33,42.805,6.029,4330,1995,192.083,58.751,13.295
2019-07-28T16:38:33,42.805,6.029,4330,1995,192.122,58.760,13.293
2019-07-28T16:41:33,42.805,6.029,4330,1995,192.213,58.787,13.293
2019-07-28T16:44:33,42.805,6.029,4330,1995,192.194,58.781,13.292
2019-07-28T16:47:33,42.805,6.029,4330,1995,192.087,58.752,13.295
2019-07-28T16:50:33,42.805,6.029,4330,1995,192.010,58.727,13.294
2019-07-28T16:53:33,42.805,6.029,4330,1995,191.940,58.704,13.293
2019-07-28T16:56:33,42.805,6.029,4330,1995,192.026,58.729,13.292
2019-07-28T16:59:33,42.805,6.029,4330,1995,192.187,58.779,13.293
2019-07-28T17:02:33,42.805,6.029,4330,1995,192.185,58.777,13.291
2019-07-28T17:05:33,42.805,6.029,4330,1995,192.159,58.771,13.293
2019-07-28T17:08:33,42.805,6.029,4330,1995,192.033,58.732,13.292
2019-07-28T17:11:33,42.805,6.029,4330,1995,192.113,58.756,13.292
2019-07-28T17:14:33,42.805,6.029,4330,1995,192.035,58.731,13.291
2019-07-28T17:17:33,42.805,6.029,4330,1995,192.038,58.734,13.293
2019-07-28T17:20:33,42.805,6.029,4330,1995,192.189,58.778,13.291
2019-07-28T17:26:33,42.805,6.029,4330,1995,192.116,58.759,13.294
2019-07-28T17:29:33,42.805,6.029,4330,1995,192.064,58.742,13.292
2019-07-28T17:32:33,42.805,6.029,4330,1995,192.120,58.761,13.294
2019-07-28T17:35:33,42.805,6.029,4330,1995,191.910,58.696,13.294
2019-07-28T17:38:33,42.805,6.029,4330,1995,191.963,58.713,13.294
2019-07-28T17:41:33,42.805,6.029,4330,1995,192.037,58.734,13.293
2019-07-28T17:44:33,42.805,6.029,4330,1995,192.033,58.735,13.294
2019-07-28T17:47:33,42.805,6.029,4330,1995,191.907,58.694,13.293
2019-07-28T17:50:33,42.805,6.029,4330,1995,191.889,58.690,13.294
2019-07-28T17:53:33,42.805,6.029,4330,1995,191.818,58.667,13.293
2019-07-28T17:56:33,42.805,6.029,4330,1995,191.768,58.651,13.293
2019-07-28T17:59:33,42.805,6.029,4330,1995,191.805,58.662,13.292
2019-07-28T18:02:33,42.805,6.029,4330,1995,191.818,58.665,13.291
2019-07-28T18:05:33,42.805,6.029,4330,1995,191.805,58.661,13.291
2019-07-28T18:08:33,42.805,6.029,4330,1995,191.814,58.665,13.292
2019-07-28T18:11:33,42.805,6.029,4330,1995,191.791,58.658,13.293
2019-07-28T18:14:33,42.805,6.029,4330,1995,191.754,58.647,13.293
2019-07-28T18:17:33,42.805,6.029,4330,1995,191.809,58.662,13.291
2019-07-28T18:20:33,42.805,6.029,4330,1995,191.733,58.637,13.290
2019-07-28T18:23:33,42.805,6.029,4330,1995,191.781,58.653,13.291
2019-07-28T18:26:33,42.805,6.029,4330,1995,191.934,58.700,13.291
2019-07-28T18:29:33,42.805,6.029,4330,1995,191.996,58.718,13.290
2019-07-28T18:32:33,42.805,6.029,4330,1995,191.876,58.684,13.292
2019-07-28T18:35:33,42.805,6.029,4330,1995,191.823,58.666,13.291